Location: Proctor
(47.8934°N, 114.3048°W)
Time: 17:07:55
(UTC+00:00)

Transit 4A - Pass Details

Date: 18 May 2025
Orbit: 866 x 975 km, 66.8° (Epoch: 13 June)

Event Time Altitude Azimuth Distance (km) Brightness Sun altitude
Rises 09:36:19 0° 326° (NW) 3,605 11.3 -17.1°
Reaches altitude 10° 09:39:10 10° 336° (NNW) 2,640 10.7 -16.8°
Maximum altitude 09:44:39 33° 39° (NE) 1,490 9.7 -16.4°
Drops below altitude 10° 09:49:58 10° 103° (ESE) 2,562 10.5 -15.9°
Sets 09:52:41 0° 113° (ESE) 3,484 11.0 -15.6°
